Location: Newark
(45.8667°N, 9.7333°E)
Time: 13:19:27
(UTC+00:00)

ISS - Visible Passes

Search period start: 16 December 2019 00:00
Search period end: 26 December 2019 00:00
Orbit: 411 x 421 km, 51.6° (Epoch: 16 December)

Date Brightness Start Highest point End Pass type
(mag) Time Alt. Az. Time Alt. Az. Time Alt. Az.
20 Dec -0.6 06:08:07 10° S 06:10:25 18° SE 06:12:44 10° E visible
21 Dec -0.3 05:21:13 10° SSE 05:22:06 11° SE 05:22:59 10° ESE visible
22 Dec -2.4 06:06:37 10° SW 06:09:46 42° SE 06:12:57 10° ENE visible
23 Dec -1.6 05:18:30 10° SSW 05:21:20 26° SE 05:24:10 10° E visible
24 Dec -1.0 04:31:35 14° SSE 04:32:56 16° SE 04:35:07 10° E visible
24 Dec -3.8 06:05:57 10° WSW 06:09:17 83° NNW 06:12:37 10° ENE visible
25 Dec -3.4 05:18:52 24° SW 05:20:43 64° SSE 05:24:00 10° ENE visible
